Content
SEND FEEDBACK

Daily
Averages
Monthly
Summary
United States of America

DALLAS, TEXAS


Home > North America > United States > Texas
Elevation: 575 feet     Latitude: 32 54N     Longitude: 097 02W

WEATHER
 
SELECT A DAY
Number of Records: 192,549;   Date Range: 1/1/95 - 7/23/14
 
SHARE

PRINT THIS DATA

[ ← Previous Day ]
WEATHER ALMANAC - JANUARY 23, 2013
[ Next Day → ]
[ °C ]   °F
Weather ElementAverageHighLow
Temperature60.9 °F73.4 °F (3:53 pm)48 °F (5:53 am)
Dewpoint49.8 °F53.1 °F (5:53 pm)45 °F (1:53 am)
Humidity68.7 %89 % (5:53 am)46 % (1:53 pm)
Barometer30.18 in30.25 in (9:53 am)30.12 in (4:53 pm)
Wind Speed10.7 mph16.1 mph (10:53 am)
Weather ElementAverage
Visibility9.9 mi
Wind DirectionSSW (193 °)

Weather ElementTotal
Precipitation---
Heating Degree Days4.3 (Base 65)
Growing Degree Days10.7 (Base 50)
Averaged from 23 records on January 23, 2013
WEATHER CONDITIONS BREAKOUT
WIND DIRECTION BREAKOUT
WEATHER BY HOUR - JANUARY 23, 2013
[ °C ]   °F
Local TimeTemperatureDewpointHumidityBarometerVisibilityWind DirectionWind SpeedGust SpeedPrecipitationEventsConditions
1:53 AM50.0 °F45.0 °F83 %30.19 in10.0 miSouth (190°)8.1 mphClear
2:53 AM50.0 °F45.0 °F83 %30.20 in10.0 miSSW (210°)5.8 mphClear
3:53 AM50.0 °F45.0 °F83 %30.21 in10.0 miSSW (210°)3.5 mphClear
4:53 AM52.0 °F46.0 °F80 %30.22 in10.0 miSW (230°)6.9 mphMostly Cloudy
5:53 AM48.0 °F45.0 °F89 %30.22 in10.0 miSouth (190°)8.1 mphScattered Clouds
6:53 AM48.9 °F45.0 °F86 %30.22 in10.0 miSouth (190°)9.2 mphPartly Cloudy
7:53 AM48.0 °F45.0 °F89 %30.24 in8.0 miSouth (190°)8.1 mphPartly Cloudy
8:53 AM55.0 °F48.9 °F80 %30.24 in10.0 miSSW (200°)10.4 mphPartly Cloudy
9:53 AM61.0 °F50.0 °F67 %30.25 in10.0 miSSW (210°)15.0 mphClear
10:53 AM66.9 °F50.0 °F54 %30.25 in10.0 miSSW (210°)16.1 mphClear
11:53 AM68.0 °F50.0 °F52 %30.23 in10.0 miSSW (200°)16.1 mphClear
12:53 PM70.0 °F51.1 °F51 %30.21 in10.0 miSSW (200°)10.4 mphClear
1:53 PM73.0 °F51.1 °F46 %30.17 in10.0 miSW (230°)16.1 mphClear
2:53 PM73.0 °F52.0 °F48 %30.14 in10.0 miSSE (160°)9.2 mphScattered Clouds
3:53 PM73.4 °F51.8 °F47 %30.14 in10.0 miSouth (170°)15.0 mphScattered Clouds
4:53 PM72.0 °F52.0 °F49 %30.12 in10.0 miSouth (180°)15.0 mphScattered Clouds
5:53 PM69.1 °F53.1 °F57 %30.13 in10.0 miSouth (170°)12.7 mphScattered Clouds
6:53 PM66.9 °F53.1 °F61 %30.12 in10.0 miSouth (180°)13.8 mphScattered Clouds
7:53 PM64.9 °F53.1 °F65 %30.12 in10.0 miSouth (180°)11.5 mphMostly Cloudy
8:53 PM63.0 °F53.1 °F70 %30.14 in10.0 miSouth (180°)10.4 mphPartly Cloudy
9:53 PM60.1 °F53.1 °F78 %30.14 in10.0 miSouth (180°)8.1 mphClear
10:53 PM59.0 °F53.1 °F81 %30.13 in10.0 miSouth (190°)9.2 mphPartly Cloudy
11:53 PM59.0 °F53.1 °F81 %30.12 in10.0 miSouth (190°)8.1 mphMostly Cloudy
Hourly data recorded from KDFW, located miles away from Dallas, Texas







STORIES FROM OUR PARTNERS